Time,TemperatureF,DewpointF,PressureIn,WindDirection,WindDirectionDegrees,WindSpeedMPH,WindSpeedGustMPH,Humidity,HourlyPrecipIn,Conditions,Clouds,dailyrainin,SoftwareType,DateUTC
2013-08-21 00:03:00,71.2,67.5,30.18,NNE,22,0.0,1.9,88,0.00,,,0.00,WUHU21623XXSP,2013-08-21 04:03:00,
2013-08-21 00:08:00,71.1,67.3,30.18,North,0,0.0,1.9,88,0.00,,,0.00,WUHU21623XXSP,2013-08-21 04:08:00,
2013-08-21 00:13:00,70.9,67.1,30.18,North,0,0.0,0.0,88,0.00,,,0.00,WUHU21623XXSP,2013-08-21 04:13:00,
2013-08-21 00:18:00,70.9,67.1,30.18,East,90,0.0,0.0,88,0.00,,,0.00,WUHU21623XXSP,2013-08-21 04:18:00,
2013-08-21 00:23:00,70.9,67.1,30.18,ESE,112,0.0,0.0,88,0.00,,,0.00,WUHU21623XXSP,2013-08-21 04:23:00,
2013-08-21 00:29:00,70.9,67.1,30.18,East,90,0.0,0.0,88,0.00,,,0.00,WUHU21623XXSP,2013-08-21 04:29:00,
2013-08-21 00:34:00,70.7,67.0,30.18,ESE,112,0.0,0.0,88,0.00,,,0.00,WUHU21623XXSP,2013-08-21 04:34:00,
2013-08-21 00:39:00,70.5,66.8,30.19,East,90,0.0,0.0,88,0.00,,,0.00,WUHU21623XXSP,2013-08-21 04:39:00,
2013-08-21 00:44:00,70.5,66.8,30.19,East,90,0.0,0.0,88,0.00,,,0.00,WUHU21623XXSP,2013-08-21 04:44:00,
2013-08-21 00:49:00,70.5,66.8,30.19,East,90,0.0,0.0,88,0.00,,,0.00,WUHU21623XXSP,2013-08-21 04:49:00,
2013-08-21 00:54:00,70.5,66.8,30.19,East,90,0.0,0.0,88,0.00,,,0.00,WUHU21623XXSP,2013-08-21 04:54:00,
2013-08-21 00:59:00,70.5,66.8,30.19,East,90,0.0,0.0,88,0.00,,,0.00,WUHU21623XXSP,2013-08-21 04:59:00,
2013-08-21 01:04:00,70.7,67.0,30.19,East,90,0.0,0.0,88,0.00,,,0.00,WUHU21623XXSP,2013-08-21 05:04:00,
2013-08-21 01:09:00,70.7,67.0,30.19,ESE,112,0.0,0.0,88,0.00,,,0.00,WUHU21623XXSP,2013-08-21 05:09:00,
2013-08-21 01:14:00,70.7,67.0,30.19,NNE,22,0.0,0.0,88,0.00,,,0.00,WUHU21623XXSP,2013-08-21 05:14:00,
2013-08-21 01:19:00,70.7,67.0,30.19,East,90,0.0,0.0,88,0.00,,,0.00,WUHU21623XXSP,2013-08-21 05:19:00,
2013-08-21 01:24:00,70.7,67.0,30.19,NNE,22,0.0,0.0,88,0.00,,,0.00,WUHU21623XXSP,2013-08-21 05:24:00,
2013-08-21 01:29:00,70.7,67.0,30.19,East,90,0.0,0.0,88,0.00,,,0.00,WUHU21623XXSP,2013-08-21 05:29:00,
2013-08-21 01:34:00,70.7,67.0,30.19,ESE,112,0.0,0.0,88,0.00,,,0.00,WUHU21623XXSP,2013-08-21 05:34:00,
2013-08-21 01:39:00,70.7,67.0,30.18,East,90,0.0,0.0,88,0.00,,,0.00,WUHU21623XXSP,2013-08-21 05:39:00,
2013-08-21 01:44:00,70.7,67.0,30.18,East,90,0.0,0.0,88,0.00,,,0.00,WUHU21623XXSP,2013-08-21 05:44:00,
2013-08-21 01:49:00,70.5,66.8,30.19,East,90,0.0,0.0,88,0.00,,,0.00,WUHU21623XXSP,2013-08-21 05:49:00,
2013-08-21 01:54:00,70.5,66.8,30.18,East,90,0.0,0.0,88,0.00,,,0.00,WUHU21623XXSP,2013-08-21 05:54:00,
2013-08-21 01:59:00,70.5,66.8,30.18,East,90,0.0,0.0,88,0.00,,,0.00,WUHU21623XXSP,2013-08-21 05:59:00,
2013-08-21 02:04:00,70.5,66.8,30.18,NNE,22,0.0,0.0,88,0.00,,,0.00,WUHU21623XXSP,2013-08-21 06:04:00,
2013-08-21 02:09:00,70.5,66.8,30.17,NNE,22,0.0,0.0,88,0.00,,,0.00,WUHU21623XXSP,2013-08-21 06:09:00,
2013-08-21 02:14:00,70.5,66.8,30.18,East,90,0.0,0.0,88,0.00,,,0.00,WUHU21623XXSP,2013-08-21 06:14:00,
2013-08-21 02:19:00,70.5,66.8,30.17,East,90,0.0,0.0,88,0.00,,,0.00,WUHU21623XXSP,2013-08-21 06:19:00,
2013-08-21 02:24:00,70.5,66.8,30.18,ESE,112,0.0,0.0,88,0.00,,,0.00,WUHU21623XXSP,2013-08-21 06:24:00,
2013-08-21 02:29:00,70.5,66.8,30.18,ESE,112,0.0,0.0,88,0.00,,,0.00,WUHU21623XXSP,2013-08-21 06:29:00,
2013-08-21 02:34:00,70.5,66.8,30.18,ESE,112,0.0,0.0,88,0.00,,,0.00,WUHU21623XXSP,2013-08-21 06:34:00,
2013-08-21 02:39:00,70.3,66.6,30.18,ESE,112,0.0,0.0,88,0.00,,,0.00,WUHU21623XXSP,2013-08-21 06:39:00,
2013-08-21 02:44:00,70.3,66.6,30.18,South,180,0.0,0.0,88,0.00,,,0.00,WUHU21623XXSP,2013-08-21 06:44:00,
2013-08-21 02:49:00,70.3,66.6,30.18,East,90,0.0,0.0,88,0.00,,,0.00,WUHU21623XXSP,2013-08-21 06:49:00,
2013-08-21 02:54:00,70.3,66.6,30.18,East,90,0.0,0.0,88,0.00,,,0.00,WUHU21623XXSP,2013-08-21 06:54:00,
2013-08-21 03:00:00,70.3,66.6,30.18,East,90,0.0,0.0,88,0.00,,,0.00,WUHU21623XXSP,2013-08-21 07:00:00,
2013-08-21 03:05:00,70.5,66.8,30.18,East,90,0.0,0.0,88,0.00,,,0.00,WUHU21623XXSP,2013-08-21 07:05:00,
2013-08-21 03:10:00,70.5,66.8,30.17,East,90,0.0,0.0,88,0.00,,,0.00,WUHU21623XXSP,2013-08-21 07:10:00,
2013-08-21 03:15:00,70.5,66.8,30.17,East,90,0.0,0.0,88,0.00,,,0.00,WUHU21623XXSP,2013-08-21 07:15:00,
2013-08-21 03:20:00,70.5,66.8,30.17,East,90,0.0,0.0,88,0.00,,,0.00,WUHU21623XXSP,2013-08-21 07:20:00,
2013-08-21 03:25:00,70.7,67.0,30.17,ESE,112,0.0,0.0,88,0.00,,,0.00,WUHU21623XXSP,2013-08-21 07:25:00,
2013-08-21 03:30:00,70.5,66.8,30.17,East,90,0.0,0.0,88,0.00,,,0.00,WUHU21623XXSP,2013-08-21 07:30:00,
2013-08-21 03:35:00,70.7,67.0,30.17,East,90,0.0,0.0,88,0.00,,,0.00,WUHU21623XXSP,2013-08-21 07:35:00,
2013-08-21 03:40:00,70.5,66.8,30.17,East,90,0.0,0.0,88,0.00,,,0.00,WUHU21623XXSP,2013-08-21 07:40:00,
2013-08-21 03:45:00,70.5,66.8,30.17,East,90,0.0,0.0,88,0.00,,,0.00,WUHU21623XXSP,2013-08-21 07:45:00,
2013-08-21 03:50:00,70.5,66.8,30.17,East,90,0.0,0.0,88,0.00,,,0.00,WUHU21623XXSP,2013-08-21 07:50:00,
2013-08-21 03:55:00,70.7,67.0,30.17,East,90,0.0,0.0,88,0.00,,,0.00,WUHU21623XXSP,2013-08-21 07:55:00,
2013-08-21 04:00:00,70.5,66.8,30.17,NNE,22,0.0,0.0,88,0.00,,,0.00,WUHU21623XXSP,2013-08-21 08:00:00,
2013-08-21 04:05:00,70.3,66.6,30.17,East,90,0.0,0.0,88,0.00,,,0.00,WUHU21623XXSP,2013-08-21 08:05:00,
2013-08-21 04:10:00,70.3,66.6,30.17,East,90,0.0,0.0,88,0.00,,,0.00,WUHU21623XXSP,2013-08-21 08:10:00,
2013-08-21 04:15:00,70.2,66.4,30.17,East,90,0.0,0.0,88,0.00,,,0.00,WUHU21623XXSP,2013-08-21 08:15:00,
2013-08-21 04:20:00,70.2,66.4,30.17,ESE,112,0.0,0.0,88,0.00,,,0.00,WUHU21623XXSP,2013-08-21 08:20:00,
2013-08-21 04:25:00,70.0,66.2,30.17,ESE,112,0.0,0.0,88,0.00,,,0.00,WUHU21623XXSP,2013-08-21 08:25:00,
2013-08-21 04:30:00,70.0,66.2,30.17,South,180,0.0,0.0,88,0.00,,,0.00,WUHU21623XXSP,2013-08-21 08:30:00,
2013-08-21 04:35:00,70.0,66.2,30.17,East,90,0.0,0.0,88,0.00,,,0.00,WUHU21623XXSP,2013-08-21 08:35:00,
2013-08-21 04:40:00,70.0,66.2,30.17,East,90,0.0,0.0,88,0.00,,,0.00,WUHU21623XXSP,2013-08-21 08:40:00,
2013-08-21 04:45:00,69.8,66.1,30.17,NNE,22,0.0,0.0,88,0.00,,,0.00,WUHU21623XXSP,2013-08-21 08:45:00,
2013-08-21 04:50:00,70.0,66.2,30.17,ESE,112,0.0,0.0,88,0.00,,,0.00,WUHU21623XXSP,2013-08-21 08:50:00,
2013-08-21 04:55:00,70.0,66.2,30.17,East,90,0.0,0.0,88,0.00,,,0.00,WUHU21623XXSP,2013-08-21 08:55:00,
2013-08-21 05:00:00,70.0,66.2,30.17,East,90,1.2,1.3,88,0.00,,,0.00,WUHU21623XXSP,2013-08-21 09:00:00,
2013-08-21 05:05:00,69.8,66.1,30.17,NNE,22,0.0,1.3,88,0.00,,,0.00,WUHU21623XXSP,2013-08-21 09:05:00,
2013-08-21 05:10:00,69.6,65.9,30.17,NNE,22,0.0,1.3,88,0.00,,,0.00,WUHU21623XXSP,2013-08-21 09:10:00,
2013-08-21 05:15:00,69.6,65.9,30.17,ESE,112,0.0,0.0,88,0.00,,,0.00,WUHU21623XXSP,2013-08-21 09:15:00,
2013-08-21 05:20:00,69.6,65.9,30.17,South,180,0.0,0.0,88,0.00,,,0.00,WUHU21623XXSP,2013-08-21 09:20:00,
2013-08-21 05:25:00,69.4,65.7,30.17,East,90,0.0,0.0,88,0.00,,,0.00,WUHU21623XXSP,2013-08-21 09:25:00,
2013-08-21 05:31:00,69.4,65.7,30.17,NNE,22,0.0,0.0,88,0.00,,,0.00,WUHU21623XXSP,2013-08-21 09:31:00,
2013-08-21 05:36:00,69.4,65.7,30.17,NNE,22,0.0,0.0,88,0.00,,,0.00,WUHU21623XXSP,2013-08-21 09:36:00,
2013-08-21 05:41:00,69.4,65.7,30.17,East,90,0.0,0.0,88,0.00,,,0.00,WUHU21623XXSP,2013-08-21 09:41:00,
2013-08-21 05:46:00,69.4,65.7,30.18,East,90,0.0,0.0,88,0.00,,,0.00,WUHU21623XXSP,2013-08-21 09:46:00,
2013-08-21 05:51:00,69.4,65.7,30.18,East,90,0.0,0.0,88,0.00,,,0.00,WUHU21623XXSP,2013-08-21 09:51:00,
2013-08-21 05:56:00,69.4,65.7,30.18,East,90,0.0,0.0,88,0.00,,,0.00,WUHU21623XXSP,2013-08-21 09:56:00,
2013-08-21 06:01:00,69.4,65.7,30.18,ESE,112,0.0,0.0,88,0.00,,,0.00,WUHU21623XXSP,2013-08-21 10:01:00,
2013-08-21 06:06:00,69.4,65.7,30.18,East,90,0.0,0.0,88,0.00,,,0.00,WUHU21623XXSP,2013-08-21 10:06:00,
2013-08-21 06:11:00,69.4,65.7,30.18,North,0,0.0,0.0,88,0.00,,,0.00,WUHU21623XXSP,2013-08-21 10:11:00,
2013-08-21 06:16:00,69.4,65.7,30.19,ESE,112,0.0,0.0,88,0.00,,,0.00,WUHU21623XXSP,2013-08-21 10:16:00,
2013-08-21 06:21:00,69.1,65.3,30.19,ESE,112,0.0,0.0,88,0.00,,,0.00,WUHU21623XXSP,2013-08-21 10:21:00,
2013-08-21 06:26:00,69.1,65.3,30.19,East,90,1.2,1.3,88,0.00,,,0.00,WUHU21623XXSP,2013-08-21 10:26:00,
2013-08-21 06:31:00,69.1,65.3,30.19,NNE,22,0.0,1.3,88,0.00,,,0.00,WUHU21623XXSP,2013-08-21 10:31:00,
2013-08-21 06:36:00,69.1,65.3,30.19,ESE,112,0.0,1.3,88,0.00,,,0.00,WUHU21623XXSP,2013-08-21 10:36:00,
2013-08-21 06:41:00,69.1,65.3,30.19,ESE,112,0.0,0.0,88,0.00,,,0.00,WUHU21623XXSP,2013-08-21 10:41:00,
2013-08-21 06:46:00,69.1,65.3,30.19,NNE,22,0.0,0.0,88,0.00,,,0.00,WUHU21623XXSP,2013-08-21 10:46:00,
2013-08-21 06:51:00,68.9,65.2,30.19,East,90,0.0,0.0,88,0.00,,,0.00,WUHU21623XXSP,2013-08-21 10:51:00,
2013-08-21 06:56:00,68.9,65.2,30.20,ESE,112,0.0,0.0,88,0.00,,,0.00,WUHU21623XXSP,2013-08-21 10:56:00,
2013-08-21 07:02:00,68.9,65.2,30.20,East,90,0.0,0.0,88,0.00,,,0.00,WUHU21623XXSP,2013-08-21 11:02:00,
2013-08-21 07:07:00,68.7,65.0,30.20,NNE,22,0.0,0.0,88,0.00,,,0.00,WUHU21623XXSP,2013-08-21 11:07:00,
2013-08-21 07:12:00,68.7,65.0,30.20,East,90,0.0,0.0,88,0.00,,,0.00,WUHU21623XXSP,2013-08-21 11:12:00,
2013-08-21 07:17:00,68.7,65.0,30.20,ESE,112,0.0,0.0,88,0.00,,,0.00,WUHU21623XXSP,2013-08-21 11:17:00,
2013-08-21 07:22:00,68.7,65.0,30.20,NNE,22,0.0,0.0,88,0.00,,,0.00,WUHU21623XXSP,2013-08-21 11:22:00,
2013-08-21 07:27:00,68.7,65.0,30.20,ESE,112,0.0,0.0,88,0.00,,,0.00,WUHU21623XXSP,2013-08-21 11:27:00,
2013-08-21 07:32:00,68.7,65.0,30.20,ESE,112,0.0,0.0,88,0.00,,,0.00,WUHU21623XXSP,2013-08-21 11:32:00,
2013-08-21 07:37:00,68.7,65.0,30.20,ESE,112,0.0,0.0,88,0.00,,,0.00,WUHU21623XXSP,2013-08-21 11:37:00,
2013-08-21 07:42:00,68.7,65.0,30.20,East,90,0.0,0.0,88,0.00,,,0.00,WUHU21623XXSP,2013-08-21 11:42:00,
2013-08-21 07:47:00,68.7,65.0,30.21,ESE,112,0.0,0.0,88,0.00,,,0.00,WUHU21623XXSP,2013-08-21 11:47:00,
2013-08-21 07:52:00,68.7,65.0,30.21,East,90,0.0,0.0,88,0.00,,,0.00,WUHU21623XXSP,2013-08-21 11:52:00,
2013-08-21 07:57:00,68.9,65.2,30.21,East,90,0.0,0.0,88,0.00,,,0.00,WUHU21623XXSP,2013-08-21 11:57:00,
2013-08-21 08:02:00,69.1,65.3,30.21,East,90,0.0,0.0,88,0.00,,,0.00,WUHU21623XXSP,2013-08-21 12:02:00,
2013-08-21 08:07:00,69.3,65.5,30.22,East,90,0.0,0.0,88,0.00,,,0.00,WUHU21623XXSP,2013-08-21 12:07:00,
2013-08-21 08:12:00,69.4,65.7,30.22,East,90,0.0,0.0,88,0.00,,,0.00,WUHU21623XXSP,2013-08-21 12:12:00,
2013-08-21 08:17:00,69.6,65.9,30.22,East,90,0.0,0.0,88,0.00,,,0.00,WUHU21623XXSP,2013-08-21 12:17:00,
2013-08-21 08:22:00,70.0,66.2,30.22,ESE,112,0.0,0.0,88,0.00,,,0.00,WUHU21623XXSP,2013-08-21 12:22:00,
2013-08-21 08:27:00,70.3,66.6,30.21,ESE,112,0.0,0.0,88,0.00,,,0.00,WUHU21623XXSP,2013-08-21 12:27:00,
2013-08-21 08:32:00,70.7,67.0,30.22,ESE,112,0.0,0.0,88,0.00,,,0.00,WUHU21623XXSP,2013-08-21 12:32:00,
2013-08-21 08:38:00,71.2,67.5,30.22,East,90,0.0,0.0,88,0.00,,,0.00,WUHU21623XXSP,2013-08-21 12:38:00,
2013-08-21 08:43:00,72.0,68.2,30.22,ESE,112,0.0,0.0,88,0.00,,,0.00,WUHU21623XXSP,2013-08-21 12:43:00,
2013-08-21 08:48:00,72.3,68.6,30.22,East,90,0.0,0.0,88,0.00,,,0.00,WUHU21623XXSP,2013-08-21 12:48:00,
2013-08-21 08:53:00,72.5,68.8,30.22,NNE,22,0.0,0.0,88,0.00,,,0.00,WUHU21623XXSP,2013-08-21 12:53:00,
2013-08-21 08:58:00,72.5,68.8,30.22,NNE,22,0.0,0.0,88,0.00,,,0.00,WUHU21623XXSP,2013-08-21 12:58:00,
2013-08-21 09:03:00,72.3,68.6,30.22,NNE,22,0.0,0.0,88,0.00,,,0.00,WUHU21623XXSP,2013-08-21 13:03:00,
2013-08-21 09:08:00,72.7,68.9,30.22,NNE,22,0.0,0.0,88,0.00,,,0.00,WUHU21623XXSP,2013-08-21 13:08:00,
2013-08-21 09:13:00,73.2,69.5,30.22,ESE,112,0.0,0.0,88,0.00,,,0.00,WUHU21623XXSP,2013-08-21 13:13:00,
2013-08-21 09:18:00,73.2,69.5,30.22,West,270,0.0,0.0,88,0.00,,,0.00,WUHU21623XXSP,2013-08-21 13:18:00,
2013-08-21 09:23:00,73.6,69.8,30.22,SSW,202,0.0,2.4,88,0.00,,,0.00,WUHU21623XXSP,2013-08-21 13:23:00,
2013-08-21 09:28:00,73.9,70.2,30.22,East,90,0.0,2.4,88,0.00,,,0.00,WUHU21623XXSP,2013-08-21 13:28:00,
2013-08-21 09:33:00,74.5,70.7,30.22,West,270,0.0,0.0,88,0.00,,,0.00,WUHU21623XXSP,2013-08-21 13:33:00,
2013-08-21 09:38:00,74.5,70.7,30.22,WNW,292,0.0,0.0,88,0.00,,,0.00,WUHU21623XXSP,2013-08-21 13:38:00,
2013-08-21 09:43:00,75.0,71.3,30.22,South,180,0.0,0.0,88,0.00,,,0.00,WUHU21623XXSP,2013-08-21 13:43:00,
2013-08-21 09:48:00,75.9,72.2,30.22,ESE,112,0.0,0.0,88,0.00,,,0.00,WUHU21623XXSP,2013-08-21 13:48:00,
2013-08-21 09:53:00,76.3,72.5,30.22,North,0,0.0,0.0,88,0.00,,,0.00,WUHU21623XXSP,2013-08-21 13:53:00,
2013-08-21 09:58:00,76.3,72.5,30.22,SSW,202,0.0,0.0,88,0.00,,,0.00,WUHU21623XXSP,2013-08-21 13:58:00,
2013-08-21 10:03:00,76.6,72.9,30.22,WNW,292,0.0,0.0,88,0.00,,,0.00,WUHU21623XXSP,2013-08-21 14:03:00,
2013-08-21 10:08:00,76.5,72.3,30.23,North,0,0.0,0.0,87,0.00,,,0.00,WUHU21623XXSP,2013-08-21 14:08:00,
2013-08-21 10:13:00,76.3,72.2,30.23,North,0,0.0,0.0,87,0.00,,,0.00,WUHU21623XXSP,2013-08-21 14:13:00,
2013-08-21 10:18:00,76.6,72.5,30.23,North,0,0.0,0.0,87,0.00,,,0.00,WUHU21623XXSP,2013-08-21 14:18:00,
2013-08-21 10:23:00,77.2,73.0,30.22,WNW,292,0.0,0.0,87,0.00,,,0.00,WUHU21623XXSP,2013-08-21 14:23:00,
2013-08-21 10:28:00,77.7,73.6,30.22,ESE,112,0.0,0.0,87,0.00,,,0.00,WUHU21623XXSP,2013-08-21 14:28:00,
2013-08-21 10:33:00,78.4,73.6,30.22,East,90,0.0,0.0,85,0.00,,,0.00,WUHU21623XXSP,2013-08-21 14:33:00,
2013-08-21 10:38:00,78.1,72.9,30.22,NNE,22,0.0,0.0,84,0.00,,,0.00,WUHU21623XXSP,2013-08-21 14:38:00,
2013-08-21 10:44:00,77.9,72.7,30.22,SSW,202,0.0,0.0,84,0.00,,,0.00,WUHU21623XXSP,2013-08-21 14:44:00,
2013-08-21 10:49:00,77.5,72.7,30.23,WNW,292,0.0,0.0,85,0.00,,,0.00,WUHU21623XXSP,2013-08-21 14:49:00,
2013-08-21 10:54:00,77.5,72.7,30.23,West,270,0.0,0.0,85,0.00,,,0.00,WUHU21623XXSP,2013-08-21 14:54:00,
2013-08-21 10:59:00,77.4,72.5,30.22,WNW,292,0.0,0.0,85,0.00,,,0.00,WUHU21623XXSP,2013-08-21 14:59:00,
2013-08-21 11:04:00,77.5,72.7,30.23,SSW,202,0.0,0.0,85,0.00,,,0.00,WUHU21623XXSP,2013-08-21 15:04:00,
2013-08-21 11:09:00,78.1,73.2,30.22,SSW,202,1.7,1.9,85,0.00,,,0.00,WUHU21623XXSP,2013-08-21 15:09:00,
2013-08-21 11:14:00,78.6,73.0,30.23,ESE,112,3.8,4.4,83,0.00,,,0.00,WUHU21623XXSP,2013-08-21 15:14:00,
2013-08-21 11:19:00,79.2,73.6,30.24,West,270,0.0,4.4,83,0.00,,,0.00,WUHU21623XXSP,2013-08-21 15:19:00,
2013-08-21 11:24:00,79.5,73.6,30.24,WNW,292,0.0,4.4,82,0.00,,,0.00,WUHU21623XXSP,2013-08-21 15:24:00,
2013-08-21 11:29:00,79.7,73.4,30.24,SSW,202,2.1,2.4,81,0.00,,,0.00,WUHU21623XXSP,2013-08-21 15:29:00,
2013-08-21 11:34:00,79.7,73.7,30.23,West,270,0.0,2.4,82,0.00,,,0.00,WUHU21623XXSP,2013-08-21 15:34:00,
2013-08-21 11:39:00,80.2,73.9,30.23,West,270,2.6,3.0,81,0.00,,,0.00,WUHU21623XXSP,2013-08-21 15:39:00,
2013-08-21 11:44:00,80.2,73.9,30.23,South,180,2.9,3.3,81,0.00,,,0.00,WUHU21623XXSP,2013-08-21 15:44:00,
2013-08-21 11:49:00,79.5,72.9,30.23,WNW,292,0.0,3.3,80,0.00,,,0.00,WUHU21623XXSP,2013-08-21 15:49:00,
2013-08-21 11:54:00,79.5,73.6,30.23,WNW,292,0.0,3.3,82,0.00,,,0.00,WUHU21623XXSP,2013-08-21 15:54:00,
2013-08-21 11:59:00,79.0,72.7,30.24,WNW,292,0.0,0.0,81,0.00,,,0.00,WUHU21623XXSP,2013-08-21 15:59:00,
2013-08-21 12:04:00,78.6,72.7,30.23,ESE,112,2.9,3.3,82,0.00,,,0.00,WUHU21623XXSP,2013-08-21 16:04:00,
2013-08-21 12:09:00,78.6,73.0,30.23,SSW,202,0.0,3.3,83,0.00,,,0.00,WUHU21623XXSP,2013-08-21 16:09:00,
2013-08-21 12:14:00,78.4,72.9,30.23,NNE,22,0.0,3.3,83,0.00,,,0.00,WUHU21623XXSP,2013-08-21 16:14:00,
2013-08-21 12:19:00,78.1,72.9,30.23,WNW,292,1.2,1.3,84,0.00,,,0.00,WUHU21623XXSP,2013-08-21 16:19:00,
2013-08-21 12:24:00,77.5,72.7,30.23,WNW,292,0.0,1.3,85,0.00,,,0.00,WUHU21623XXSP,2013-08-21 16:24:00,
2013-08-21 12:29:00,77.4,72.5,30.23,WNW,292,0.0,1.3,85,0.00,,,0.00,WUHU21623XXSP,2013-08-21 16:29:00,
2013-08-21 12:34:00,76.8,72.0,30.22,SSW,202,0.0,0.0,85,0.00,,,0.00,WUHU21623XXSP,2013-08-21 16:34:00,
2013-08-21 12:39:00,76.6,71.8,30.22,South,180,0.0,0.0,85,0.00,,,0.00,WUHU21623XXSP,2013-08-21 16:39:00,
2013-08-21 12:44:00,76.3,71.8,30.22,SSW,202,0.0,0.0,86,0.00,,,0.00,WUHU21623XXSP,2013-08-21 16:44:00,
2013-08-21 12:49:00,76.1,71.6,30.22,SSW,202,1.4,1.7,86,0.00,,,0.00,WUHU21623XXSP,2013-08-21 16:49:00,
2013-08-21 12:54:00,75.9,71.5,30.22,South,180,0.0,1.7,86,0.00,,,0.00,WUHU21623XXSP,2013-08-21 16:54:00,
2013-08-21 12:59:00,75.6,70.8,30.23,NNE,22,0.0,3.3,85,0.00,,,0.00,WUHU21623XXSP,2013-08-21 16:59:00,
2013-08-21 13:04:00,73.9,69.2,30.24,WNW,292,0.0,4.6,85,0.00,,,0.00,WUHU21623XXSP,2013-08-21 17:04:00,
2013-08-21 13:09:00,72.5,67.7,30.23,East,90,0.0,4.6,85,0.05,,,0.05,WUHU21623XXSP,2013-08-21 17:09:00,
2013-08-21 13:14:00,70.9,66.8,30.23,South,180,3.3,3.8,87,0.05,,,0.05,WUHU21623XXSP,2013-08-21 17:14:00,
2013-08-21 13:19:00,70.5,66.4,30.23,ESE,112,0.0,3.8,87,0.08,,,0.08,WUHU21623XXSP,2013-08-21 17:19:00,
2013-08-21 13:24:00,70.5,66.8,30.23,East,90,1.4,3.8,88,0.13,,,0.13,WUHU21623XXSP,2013-08-21 17:24:00,
2013-08-21 13:29:00,70.5,66.8,30.23,South,180,2.1,2.4,88,0.16,,,0.16,WUHU21623XXSP,2013-08-21 17:29:00,
2013-08-21 13:35:00,70.7,67.0,30.23,South,180,0.0,2.4,88,0.16,,,0.16,WUHU21623XXSP,2013-08-21 17:35:00,
2013-08-21 13:40:00,70.9,67.1,30.23,SSW,202,0.0,2.4,88,0.16,,,0.16,WUHU21623XXSP,2013-08-21 17:40:00,
2013-08-21 13:45:00,71.2,67.5,30.23,ESE,112,0.0,0.0,88,0.16,,,0.16,WUHU21623XXSP,2013-08-21 17:45:00,
2013-08-21 13:50:00,71.4,67.7,30.23,ESE,112,0.9,5.4,88,0.16,,,0.16,WUHU21623XXSP,2013-08-21 17:50:00,
2013-08-21 13:55:00,71.8,68.0,30.23,NNE,22,0.0,5.4,88,0.16,,,0.16,WUHU21623XXSP,2013-08-21 17:55:00,
2013-08-21 14:00:00,72.1,68.4,30.22,ESE,112,0.0,3.3,88,0.16,,,0.16,WUHU21623XXSP,2013-08-21 18:00:00,
2013-08-21 14:05:00,72.1,68.4,30.22,East,90,0.0,1.9,88,0.16,,,0.16,WUHU21623XXSP,2013-08-21 18:05:00,
2013-08-21 14:10:00,72.1,68.4,30.22,ESE,112,0.0,0.0,88,0.11,,,0.16,WUHU21623XXSP,2013-08-21 18:10:00,
2013-08-21 14:15:00,72.1,68.4,30.22,North,0,0.0,0.0,88,0.11,,,0.16,WUHU21623XXSP,2013-08-21 18:15:00,
2013-08-21 14:20:00,72.1,68.4,30.22,SSW,202,0.0,4.6,88,0.08,,,0.16,WUHU21623XXSP,2013-08-21 18:20:00,
2013-08-21 14:25:00,72.1,68.4,30.22,West,270,0.0,4.6,88,0.03,,,0.16,WUHU21623XXSP,2013-08-21 18:25:00,
2013-08-21 14:30:00,72.1,68.4,30.22,West,270,1.4,2.7,88,0.00,,,0.16,WUHU21623XXSP,2013-08-21 18:30:00,
2013-08-21 14:35:00,72.1,68.4,30.22,ESE,112,0.0,1.7,88,0.00,,,0.16,WUHU21623XXSP,2013-08-21 18:35:00,
2013-08-21 14:40:00,72.1,68.4,30.22,South,180,0.0,1.7,88,0.00,,,0.16,WUHU21623XXSP,2013-08-21 18:40:00,
2013-08-21 14:45:00,72.3,68.6,30.22,SSW,202,1.4,1.7,88,0.00,,,0.16,WUHU21623XXSP,2013-08-21 18:45:00,
2013-08-21 14:50:00,72.5,68.8,30.21,SSW,202,0.0,1.7,88,0.00,,,0.16,WUHU21623XXSP,2013-08-21 18:50:00,
2013-08-21 14:55:00,72.7,68.9,30.21,ESE,112,0.0,1.7,88,0.00,,,0.16,WUHU21623XXSP,2013-08-21 18:55:00,
2013-08-21 15:00:00,73.0,69.3,30.21,SSW,202,0.0,0.0,88,0.00,,,0.16,WUHU21623XXSP,2013-08-21 19:00:00,
2013-08-21 15:05:00,73.2,69.5,30.20,East,90,0.0,0.0,88,0.00,,,0.16,WUHU21623XXSP,2013-08-21 19:05:00,
2013-08-21 15:10:00,73.8,70.0,30.20,ESE,112,1.7,1.9,88,0.00,,,0.16,WUHU21623XXSP,2013-08-21 19:10:00,
2013-08-21 15:15:00,73.9,70.2,30.20,East,90,3.5,4.1,88,0.00,,,0.16,WUHU21623XXSP,2013-08-21 19:15:00,
2013-08-21 15:20:00,74.5,70.7,30.20,East,90,0.0,4.1,88,0.00,,,0.16,WUHU21623XXSP,2013-08-21 19:20:00,
2013-08-21 15:25:00,75.6,71.8,30.20,WNW,292,0.0,4.1,88,0.00,,,0.16,WUHU21623XXSP,2013-08-21 19:25:00,
2013-08-21 15:30:00,75.7,72.0,30.20,WNW,292,0.0,0.0,88,0.00,,,0.16,WUHU21623XXSP,2013-08-21 19:30:00,
2013-08-21 15:35:00,75.9,72.2,30.20,North,0,0.0,0.0,88,0.00,,,0.16,WUHU21623XXSP,2013-08-21 19:35:00,
2013-08-21 15:40:00,76.1,72.3,30.20,SSW,202,0.0,0.0,88,0.00,,,0.16,WUHU21623XXSP,2013-08-21 19:40:00,
2013-08-21 15:45:00,76.1,72.3,30.20,SSW,202,1.7,1.9,88,0.00,,,0.16,WUHU21623XXSP,2013-08-21 19:45:00,
2013-08-21 15:50:00,76.3,72.2,30.20,SSW,202,0.0,1.9,87,0.00,,,0.16,WUHU21623XXSP,2013-08-21 19:50:00,
2013-08-21 15:55:00,76.5,72.0,30.20,ESE,112,0.0,1.9,86,0.00,,,0.16,WUHU21623XXSP,2013-08-21 19:55:00,
2013-08-21 16:00:00,76.5,72.0,30.20,East,90,4.0,4.6,86,0.00,,,0.16,WUHU21623XXSP,2013-08-21 20:00:00,
2013-08-21 16:05:00,76.5,72.0,30.20,East,90,5.8,6.8,87,0.00,,,0.16,WUHU21623XXSP,2013-08-21 20:05:00,
2013-08-21 16:10:00,76.3,71.8,30.20,SSW,202,3.5,6.8,86,0.00,,,0.16,WUHU21623XXSP,2013-08-21 20:10:00,
2013-08-21 16:16:00,76.6,72.5,30.20,South,180,0.0,4.1,87,0.00,,,0.16,WUHU21623XXSP,2013-08-21 20:16:00,
2013-08-21 16:21:00,77.4,72.5,30.20,North,0,0.0,4.6,85,0.00,,,0.16,WUHU21623XXSP,2013-08-21 20:21:00,
2013-08-21 16:26:00,77.5,72.7,30.20,ESE,112,0.0,4.6,85,0.00,,,0.16,WUHU21623XXSP,2013-08-21 20:26:00,
2013-08-21 16:31:00,77.7,72.5,30.20,North,0,0.0,4.4,84,0.00,,,0.16,WUHU21623XXSP,2013-08-21 20:31:00,
2013-08-21 16:36:00,78.4,72.9,30.19,ESE,112,1.4,4.4,83,0.00,,,0.16,WUHU21623XXSP,2013-08-21 20:36:00,
2013-08-21 16:41:00,78.3,73.0,30.19,East,90,1.4,4.1,84,0.00,,,0.16,WUHU21623XXSP,2013-08-21 20:41:00,
2013-08-21 16:46:00,77.7,72.1,30.19,SSW,202,0.0,1.7,83,0.00,,,0.16,WUHU21623XXSP,2013-08-21 20:46:00,
2013-08-21 16:51:00,77.2,72.3,30.19,NNE,22,0.0,1.7,85,0.00,,,0.16,WUHU21623XXSP,2013-08-21 20:51:00,
2013-08-21 16:56:00,77.2,72.3,30.18,NNE,22,1.7,1.9,85,0.00,,,0.16,WUHU21623XXSP,2013-08-21 20:56:00,
2013-08-21 17:01:00,76.8,71.6,30.18,NNE,22,0.0,1.9,84,0.00,,,0.16,WUHU21623XXSP,2013-08-21 21:01:00,
2013-08-21 17:06:00,77.0,72.1,30.18,SSW,202,4.0,4.6,85,0.00,,,0.16,WUHU21623XXSP,2013-08-21 21:06:00,
2013-08-21 17:11:00,77.0,72.1,30.18,SSW,202,0.0,4.6,85,0.00,,,0.16,WUHU21623XXSP,2013-08-21 21:11:00,
2013-08-21 17:16:00,77.0,71.8,30.18,East,90,1.2,7.6,84,0.00,,,0.16,WUHU21623XXSP,2013-08-21 21:16:00,
2013-08-21 17:21:00,76.8,71.6,30.17,NNE,22,0.0,7.6,84,0.00,,,0.16,WUHU21623XXSP,2013-08-21 21:21:00,
2013-08-21 17:26:00,76.8,72.0,30.17,East,90,0.0,1.9,85,0.00,,,0.16,WUHU21623XXSP,2013-08-21 21:26:00,
2013-08-21 17:31:00,76.8,72.0,30.17,West,270,1.4,1.7,85,0.00,,,0.16,WUHU21623XXSP,2013-08-21 21:31:00,
2013-08-21 17:36:00,76.6,71.8,30.17,SSW,202,0.0,1.7,85,0.00,,,0.16,WUHU21623XXSP,2013-08-21 21:36:00,
2013-08-21 17:41:00,76.6,71.8,30.17,South,180,0.0,0.0,85,0.00,,,0.16,WUHU21623XXSP,2013-08-21 21:41:00,
2013-08-21 17:46:00,76.6,71.8,30.17,WNW,292,0.0,0.0,85,0.00,,,0.16,WUHU21623XXSP,2013-08-21 21:46:00,
2013-08-21 17:51:00,76.5,71.6,30.17,NNE,22,0.0,0.0,85,0.00,,,0.16,WUHU21623XXSP,2013-08-21 21:51:00,
2013-08-21 17:56:00,76.3,71.5,30.17,South,180,0.0,0.0,85,0.00,,,0.16,WUHU21623XXSP,2013-08-21 21:56:00,
2013-08-21 18:01:00,76.5,71.6,30.17,South,180,0.0,1.9,85,0.00,,,0.16,WUHU21623XXSP,2013-08-21 22:01:00,
2013-08-21 18:06:00,76.3,71.5,30.16,SSW,202,2.6,3.0,85,0.00,,,0.16,WUHU21623XXSP,2013-08-21 22:06:00,
2013-08-21 18:11:00,76.1,71.3,30.16,East,90,0.0,3.0,85,0.00,,,0.16,WUHU21623XXSP,2013-08-21 22:11:00,
2013-08-21 18:16:00,75.9,71.1,30.16,ESE,112,0.0,3.0,85,0.00,,,0.16,WUHU21623XXSP,2013-08-21 22:16:00,
2013-08-21 18:21:00,75.9,71.1,30.16,East,90,0.0,0.0,85,0.00,,,0.16,WUHU21623XXSP,2013-08-21 22:21:00,
2013-08-21 18:26:00,76.1,71.3,30.16,SSW,202,0.0,0.0,85,0.00,,,0.16,WUHU21623XXSP,2013-08-21 22:26:00,
2013-08-21 18:31:00,75.9,71.1,30.16,NNE,22,0.0,1.9,85,0.00,,,0.16,WUHU21623XXSP,2013-08-21 22:31:00,
2013-08-21 18:36:00,76.1,71.3,30.16,West,270,0.0,1.9,85,0.00,,,0.16,WUHU21623XXSP,2013-08-21 22:36:00,
2013-08-21 18:41:00,76.1,71.3,30.15,East,90,0.0,0.0,85,0.00,,,0.16,WUHU21623XXSP,2013-08-21 22:41:00,
2013-08-21 18:46:00,76.1,71.3,30.15,SSW,202,0.0,0.0,85,0.00,,,0.16,WUHU21623XXSP,2013-08-21 22:46:00,
2013-08-21 18:52:00,76.3,71.5,30.15,SSW,202,0.0,0.0,85,0.00,,,0.16,WUHU21623XXSP,2013-08-21 22:52:00,
2013-08-21 18:57:00,76.3,71.5,30.16,South,180,0.0,0.0,85,0.00,,,0.16,WUHU21623XXSP,2013-08-21 22:57:00,
2013-08-21 19:02:00,76.3,71.8,30.15,North,0,0.0,0.0,86,0.00,,,0.16,WUHU21623XXSP,2013-08-21 23:02:00,
2013-08-21 19:07:00,76.1,71.6,30.15,East,90,0.0,0.0,86,0.00,,,0.16,WUHU21623XXSP,2013-08-21 23:07:00,
2013-08-21 19:12:00,75.9,71.5,30.15,NNE,22,0.0,0.0,86,0.00,,,0.16,WUHU21623XXSP,2013-08-21 23:12:00,
2013-08-21 19:17:00,75.9,71.5,30.15,NNE,22,0.0,0.0,86,0.00,,,0.16,WUHU21623XXSP,2013-08-21 23:17:00,
2013-08-21 19:22:00,75.7,71.3,30.15,NNE,22,0.0,0.0,86,0.00,,,0.16,WUHU21623XXSP,2013-08-21 23:22:00,
2013-08-21 19:27:00,75.4,71.3,30.15,North,0,0.0,0.0,87,0.00,,,0.16,WUHU21623XXSP,2013-08-21 23:27:00,
2013-08-21 19:32:00,75.4,71.3,30.15,North,0,0.0,0.0,87,0.00,,,0.16,WUHU21623XXSP,2013-08-21 23:32:00,
2013-08-21 19:37:00,75.0,71.3,30.15,North,0,0.0,0.0,88,0.00,,,0.16,WUHU21623XXSP,2013-08-21 23:37:00,
2013-08-21 19:42:00,75.0,70.9,30.15,NNE,22,0.0,0.0,87,0.00,,,0.16,WUHU21623XXSP,2013-08-21 23:42:00,
2013-08-21 19:47:00,74.8,70.8,30.15,South,180,0.0,0.0,87,0.00,,,0.16,WUHU21623XXSP,2013-08-21 23:47:00,
2013-08-21 19:52:00,74.8,70.8,30.15,South,180,0.0,0.0,87,0.00,,,0.16,WUHU21623XXSP,2013-08-21 23:52:00,
2013-08-21 19:57:00,74.5,70.7,30.15,South,180,0.0,0.0,88,0.00,,,0.16,WUHU21623XXSP,2013-08-21 23:57:00,
2013-08-21 20:02:00,74.3,70.6,30.15,ESE,112,0.0,0.0,88,0.00,,,0.16,WUHU21623XXSP,2013-08-22 00:02:00,
2013-08-21 20:07:00,74.1,70.4,30.16,ESE,112,0.0,0.0,88,0.00,,,0.16,WUHU21623XXSP,2013-08-22 00:07:00,
2013-08-21 20:12:00,73.9,70.2,30.16,ESE,112,0.0,0.0,88,0.00,,,0.16,WUHU21623XXSP,2013-08-22 00:12:00,
2013-08-21 20:17:00,73.9,70.2,30.16,ESE,112,0.0,0.0,88,0.00,,,0.16,WUHU21623XXSP,2013-08-22 00:17:00,
2013-08-21 20:22:00,73.8,70.0,30.16,ESE,112,0.0,0.0,88,0.00,,,0.16,WUHU21623XXSP,2013-08-22 00:22:00,
2013-08-21 20:27:00,73.4,69.7,30.16,East,90,0.0,0.0,88,0.00,,,0.16,WUHU21623XXSP,2013-08-22 00:27:00,
2013-08-21 20:32:00,73.4,69.7,30.16,East,90,0.0,0.0,88,0.00,,,0.16,WUHU21623XXSP,2013-08-22 00:32:00,
2013-08-21 20:37:00,73.0,69.3,30.16,East,90,0.0,0.0,88,0.00,,,0.16,WUHU21623XXSP,2013-08-22 00:37:00,
2013-08-21 20:42:00,72.7,68.9,30.17,ESE,112,0.0,0.0,88,0.00,,,0.16,WUHU21623XXSP,2013-08-22 00:42:00,
2013-08-21 20:47:00,72.5,68.8,30.17,ESE,112,0.0,0.0,88,0.00,,,0.16,WUHU21623XXSP,2013-08-22 00:47:00,
2013-08-21 20:52:00,72.1,68.4,30.17,ESE,112,0.0,0.0,88,0.00,,,0.16,WUHU21623XXSP,2013-08-22 00:52:00,
2013-08-21 20:57:00,72.0,68.2,30.17,ESE,112,0.0,0.0,88,0.00,,,0.16,WUHU21623XXSP,2013-08-22 00:57:00,
2013-08-21 21:02:00,71.8,68.0,30.17,ESE,112,0.0,0.0,88,0.00,,,0.16,WUHU21623XXSP,2013-08-22 01:02:00,
2013-08-21 21:07:00,71.4,67.7,30.17,ESE,112,0.0,1.3,88,0.00,,,0.16,WUHU21623XXSP,2013-08-22 01:07:00,
2013-08-21 21:12:00,71.4,67.7,30.18,ESE,112,0.0,1.3,88,0.00,,,0.16,WUHU21623XXSP,2013-08-22 01:12:00,
2013-08-21 21:18:00,71.4,67.7,30.17,ESE,112,0.0,0.0,88,0.00,,,0.16,WUHU21623XXSP,2013-08-22 01:18:00,
2013-08-21 21:23:00,71.2,67.5,30.17,ESE,112,0.0,0.0,88,0.00,,,0.16,WUHU21623XXSP,2013-08-22 01:23:00,
2013-08-21 21:28:00,71.2,67.5,30.18,ESE,112,0.0,1.7,88,0.00,,,0.16,WUHU21623XXSP,2013-08-22 01:28:00,
2013-08-21 21:33:00,71.2,67.5,30.18,ESE,112,0.0,1.7,88,0.00,,,0.16,WUHU21623XXSP,2013-08-22 01:33:00,
2013-08-21 21:38:00,70.9,67.1,30.18,ESE,112,0.0,0.0,88,0.00,,,0.16,WUHU21623XXSP,2013-08-22 01:38:00,
2013-08-21 21:43:00,70.7,67.0,30.18,South,180,0.0,0.0,88,0.00,,,0.16,WUHU21623XXSP,2013-08-22 01:43:00,
2013-08-21 21:48:00,70.5,66.8,30.18,ESE,112,0.0,0.0,88,0.00,,,0.16,WUHU21623XXSP,2013-08-22 01:48:00,
2013-08-21 21:53:00,70.3,66.6,30.18,South,180,0.0,0.0,88,0.00,,,0.16,WUHU21623XXSP,2013-08-22 01:53:00,
2013-08-21 21:58:00,70.3,66.6,30.18,ESE,112,0.0,0.0,88,0.00,,,0.16,WUHU21623XXSP,2013-08-22 01:58:00,
2013-08-21 22:03:00,70.3,66.6,30.19,South,180,0.0,0.0,88,0.00,,,0.16,WUHU21623XXSP,2013-08-22 02:03:00,
2013-08-21 22:08:00,70.3,66.6,30.19,ESE,112,0.0,0.0,88,0.00,,,0.16,WUHU21623XXSP,2013-08-22 02:08:00,
2013-08-21 22:13:00,70.3,66.6,30.19,ESE,112,0.0,0.0,88,0.00,,,0.16,WUHU21623XXSP,2013-08-22 02:13:00,
2013-08-21 22:18:00,70.2,66.4,30.18,South,180,0.0,0.0,88,0.00,,,0.16,WUHU21623XXSP,2013-08-22 02:18:00,
2013-08-21 22:23:00,70.0,66.2,30.18,NNE,22,0.0,0.0,88,0.00,,,0.16,WUHU21623XXSP,2013-08-22 02:23:00,
2013-08-21 22:28:00,70.3,66.6,30.19,ESE,112,0.0,0.0,88,0.00,,,0.16,WUHU21623XXSP,2013-08-22 02:28:00,
2013-08-21 22:33:00,70.3,66.6,30.18,ESE,112,0.0,0.0,88,0.00,,,0.16,WUHU21623XXSP,2013-08-22 02:33:00,
2013-08-21 22:38:00,70.3,66.6,30.19,ESE,112,0.0,0.0,88,0.00,,,0.16,WUHU21623XXSP,2013-08-22 02:38:00,
2013-08-21 22:43:00,70.3,66.6,30.19,ESE,112,0.0,0.0,88,0.00,,,0.16,WUHU21623XXSP,2013-08-22 02:43:00,
2013-08-21 22:48:00,70.0,66.2,30.19,ESE,112,0.0,0.0,88,0.00,,,0.16,WUHU21623XXSP,2013-08-22 02:48:00,
2013-08-21 22:53:00,70.2,66.4,30.19,ESE,112,0.0,0.0,88,0.00,,,0.16,WUHU21623XXSP,2013-08-22 02:53:00,
2013-08-21 22:58:00,70.2,66.4,30.19,ESE,112,0.0,0.0,88,0.00,,,0.16,WUHU21623XXSP,2013-08-22 02:58:00,
2013-08-21 23:03:00,70.0,66.2,30.19,West,270,0.0,0.0,88,0.00,,,0.16,WUHU21623XXSP,2013-08-22 03:03:00,
2013-08-21 23:08:00,69.8,66.1,30.19,West,270,0.0,0.0,88,0.00,,,0.16,WUHU21623XXSP,2013-08-22 03:08:00,
2013-08-21 23:13:00,69.6,65.9,30.19,West,270,0.0,0.0,88,0.00,,,0.16,WUHU21623XXSP,2013-08-22 03:13:00,
2013-08-21 23:18:00,69.6,65.9,30.19,West,270,0.0,0.0,88,0.00,,,0.16,WUHU21623XXSP,2013-08-22 03:18:00,
2013-08-21 23:23:00,69.4,65.7,30.18,East,90,0.0,0.0,88,0.00,,,0.16,WUHU21623XXSP,2013-08-22 03:23:00,
2013-08-21 23:28:00,69.4,65.7,30.18,East,90,0.0,0.0,88,0.00,,,0.16,WUHU21623XXSP,2013-08-22 03:28:00,
2013-08-21 23:34:00,69.4,65.7,30.18,East,90,0.0,0.0,88,0.00,,,0.16,WUHU21623XXSP,2013-08-22 03:34:00,
2013-08-21 23:39:00,69.4,65.7,30.18,East,90,0.0,1.3,88,0.00,,,0.16,WUHU21623XXSP,2013-08-22 03:39:00,
2013-08-21 23:44:00,69.4,65.7,30.18,East,90,0.0,1.3,88,0.00,,,0.16,WUHU21623XXSP,2013-08-22 03:44:00,
2013-08-21 23:49:00,69.6,65.9,30.18,ESE,112,0.0,0.0,88,0.00,,,0.16,WUHU21623XXSP,2013-08-22 03:49:00,
2013-08-21 23:54:00,69.6,65.9,30.18,NNE,22,0.0,0.0,88,0.00,,,0.16,WUHU21623XXSP,2013-08-22 03:54:00,
2013-08-21 23:59:00,69.6,65.9,30.18,East,90,0.0,0.0,88,0.00,,,0.16,WUHU21623XXSP,2013-08-22 03:59:00,